AFL040 UUEE-ULLI

Flight info

Callsign AFL040
Flight time 0h 59m
Altitude 36000
Route TOKNU3H TOKNU L4 NUDKO T561 ODATI T875 GENPA GENPA1V
Aircraft A359/H-SDE2E3GHIJ1J3J4J5LM1ORWXY/LB1D1

Departure

Time 2026-05-06 16:09
Airport Sheremetyevo International Airport (UUEE)

Arrival

Time 2026-05-06 17:08
Airport Pulkovo Airport (ULLI)
Time Latitude Longitude Altitude Speed Heading
2026-05-06 15:36 55.98018 37.41840 645 ft 0 kts 255°
2026-05-06 15:50 55.98019 37.41843 645 ft 0 kts 255°
2026-05-06 15:56 55.98024 37.41878 645 ft 4 kts 255°
2026-05-06 15:57 55.98030 37.41916 645 ft 3 kts 255°
2026-05-06 15:57 55.98039 37.41957 649 ft 4 kts 217°
2026-05-06 15:57 55.98059 37.41962 649 ft 4 kts 165°
2026-05-06 15:57 55.98084 37.41950 647 ft 3 kts 165°
2026-05-06 15:58 55.98088 37.41949 646 ft 0 kts 165°
2026-05-06 16:01 55.98087 37.41949 645 ft 1 kts 165°
2026-05-06 16:01 55.98077 37.41953 645 ft 5 kts 165°
2026-05-06 16:02 55.98031 37.41974 645 ft 9 kts 166°
2026-05-06 16:02 55.97949 37.42013 645 ft 14 kts 165°
2026-05-06 16:02 55.97831 37.42069 645 ft 21 kts 165°
2026-05-06 16:02 55.97725 37.42121 645 ft 13 kts 163°
2026-05-06 16:03 55.97695 37.42160 645 ft 4 kts 98°
2026-05-06 16:03 55.97703 37.42310 645 ft 15 kts 75°
2026-05-06 16:03 55.97732 37.42507 645 ft 17 kts 74°
2026-05-06 16:03 55.97764 37.42715 648 ft 18 kts 75°
2026-05-06 16:04 55.97796 37.42940 648 ft 20 kts 76°
2026-05-06 16:04 55.97834 37.43183 648 ft 21 kts 76°
2026-05-06 16:04 55.97872 37.43443 645 ft 23 kts 75°
2026-05-06 16:04 55.97914 37.43723 645 ft 24 kts 75°
2026-05-06 16:05 55.97946 37.43935 645 ft 9 kts 75°
2026-05-06 16:05 55.97952 37.43972 647 ft 0 kts 76°
2026-05-06 16:05 55.97949 37.43984 646 ft 3 kts 103°
2026-05-06 16:05 55.97926 37.44021 647 ft 0 kts 156°
2026-05-06 16:07 55.97890 37.44047 646 ft 13 kts 161°
2026-05-06 16:07 55.97803 37.44086 646 ft 7 kts 176°
2026-05-06 16:08 55.97783 37.44023 646 ft 12 kts 252°
2026-05-06 16:08 55.97742 37.43750 649 ft 45 kts 256°
2026-05-06 16:08 55.97598 37.42775 647 ft 114 kts 255°
2026-05-06 16:08 55.97340 37.41064 659 ft 169 kts 256°
2026-05-06 16:09 55.97000 37.38893 1084 ft 186 kts 257°
2026-05-06 16:09 55.96682 37.36686 2075 ft 178 kts 258°
2026-05-06 16:09 55.96396 37.34649 3016 ft 163 kts 258°
2026-05-06 16:09 55.96085 37.32708 3536 ft 162 kts 256°
2026-05-06 16:10 55.95754 37.30739 3916 ft 173 kts 256°
2026-05-06 16:10 55.95398 37.28571 4182 ft 191 kts 256°
2026-05-06 16:10 55.95018 37.26197 4477 ft 207 kts 256°
2026-05-06 16:10 55.94614 37.23655 4854 ft 220 kts 257°
2026-05-06 16:11 55.94183 37.20915 5130 ft 239 kts 256°
2026-05-06 16:11 55.93725 37.18006 5647 ft 246 kts 256°
2026-05-06 16:11 55.93259 37.15062 6335 ft 248 kts 256°
2026-05-06 16:11 55.92788 37.12089 6841 ft 249 kts 256°
2026-05-06 16:12 55.92316 37.09099 7408 ft 252 kts 256°
2026-05-06 16:12 55.91845 37.06083 8082 ft 253 kts 257°
2026-05-06 16:12 55.91659 37.02977 8766 ft 253 kts 274°
2026-05-06 16:12 55.92171 36.99980 9476 ft 258 kts 297°
2026-05-06 16:13 55.93386 36.97579 10118 ft 267 kts 316°
2026-05-06 16:13 55.94906 36.95623 10739 ft 271 kts 321°
2026-05-06 16:13 55.96486 36.93728 11303 ft 276 kts 321°
2026-05-06 16:13 55.98087 36.91797 11895 ft 280 kts 321°
2026-05-06 16:14 55.99799 36.90049 12472 ft 290 kts 330°
2026-05-06 16:14 56.01708 36.88750 12760 ft 306 kts 335°
2026-05-06 16:14 56.03773 36.87531 13137 ft 317 kts 337°
2026-05-06 16:14 56.05893 36.86303 13667 ft 323 kts 336°
2026-05-06 16:15 56.08003 36.84909 14152 ft 323 kts 329°
2026-05-06 16:15 56.09848 36.82685 14681 ft 319 kts 315°
2026-05-06 16:15 56.11498 36.80030 15229 ft 320 kts 313°
2026-05-06 16:15 56.13126 36.77287 15771 ft 322 kts 312°
2026-05-06 16:16 56.14764 36.74517 16316 ft 325 kts 312°
2026-05-06 16:16 56.16419 36.71728 16857 ft 328 kts 313°
2026-05-06 16:16 56.18089 36.68917 17387 ft 331 kts 313°
2026-05-06 16:16 56.19776 36.66081 17921 ft 334 kts 312°
2026-05-06 16:17 56.21482 36.63211 18350 ft 338 kts 312°
2026-05-06 16:17 56.23214 36.60302 18706 ft 345 kts 312°
2026-05-06 16:17 56.24987 36.57306 18919 ft 355 kts 312°
2026-05-06 16:17 56.26808 36.54222 19093 ft 364 kts 312°
2026-05-06 16:18 56.28677 36.51055 19313 ft 373 kts 312°
2026-05-06 16:18 56.30579 36.47831 19609 ft 378 kts 313°
2026-05-06 16:18 56.32501 36.44574 20000 ft 380 kts 313°
2026-05-06 16:18 56.34406 36.41255 20385 ft 381 kts 309°
2026-05-06 16:19 56.36049 36.37535 20778 ft 379 kts 299°
2026-05-06 16:19 56.37278 36.33347 21168 ft 378 kts 292°
2026-05-06 16:19 56.38314 36.28988 21570 ft 379 kts 289°
2026-05-06 16:19 56.39261 36.24547 21953 ft 380 kts 288°
2026-05-06 16:20 56.40175 36.20046 22329 ft 382 kts 288°
2026-05-06 16:20 56.41085 36.15524 22707 ft 384 kts 288°
2026-05-06 16:20 56.42006 36.10985 23077 ft 386 kts 288°
2026-05-06 16:20 56.42943 36.06423 23430 ft 388 kts 288°
2026-05-06 16:21 56.43894 36.01847 23748 ft 390 kts 289°
2026-05-06 16:21 56.45025 35.97357 24035 ft 395 kts 296°
2026-05-06 16:21 56.46539 35.93189 24322 ft 399 kts 303°
2026-05-06 16:21 56.48229 35.89187 24626 ft 402 kts 305°
2026-05-06 16:22 56.49999 35.85253 24926 ft 404 kts 306°
2026-05-06 16:22 56.51810 35.81351 25236 ft 406 kts 307°
2026-05-06 16:22 56.53640 35.77441 25566 ft 408 kts 306°
2026-05-06 16:22 56.55475 35.73509 25898 ft 409 kts 306°
2026-05-06 16:23 56.57313 35.69545 26228 ft 411 kts 306°
2026-05-06 16:23 56.59148 35.65557 26575 ft 413 kts 306°
2026-05-06 16:23 56.60986 35.61542 26931 ft 415 kts 306°
2026-05-06 16:23 56.62830 35.57497 27300 ft 417 kts 306°
2026-05-06 16:24 56.64683 35.53427 27673 ft 419 kts 306°
2026-05-06 16:24 56.66543 35.49330 28078 ft 421 kts 306°
2026-05-06 16:24 56.68412 35.45208 28472 ft 423 kts 306°
2026-05-06 16:24 56.70287 35.41066 28857 ft 426 kts 306°
2026-05-06 16:25 56.72174 35.36891 29281 ft 428 kts 305°
2026-05-06 16:25 56.74070 35.32692 29705 ft 430 kts 305°
2026-05-06 16:25 56.75973 35.28468 30096 ft 432 kts 305°
2026-05-06 16:25 56.77880 35.24230 30446 ft 435 kts 305°
2026-05-06 16:26 56.79800 35.19953 30821 ft 436 kts 305°
2026-05-06 16:26 56.81697 35.15722 31191 ft 438 kts 305°
2026-05-06 16:26 56.83631 35.11397 31565 ft 440 kts 305°
2026-05-06 16:26 56.85594 35.07003 31915 ft 442 kts 306°
2026-05-06 16:27 56.87541 35.02637 32267 ft 444 kts 306°
2026-05-06 16:27 56.89500 34.98358 32581 ft 447 kts 309°
2026-05-06 16:27 56.91744 34.94385 32919 ft 453 kts 315°
2026-05-06 16:27 56.94274 34.90901 33203 ft 457 kts 320°
2026-05-06 16:28 56.96905 34.87590 33556 ft 460 kts 321°
2026-05-06 16:28 56.99573 34.84365 33969 ft 459 kts 322°
2026-05-06 16:28 57.02255 34.81178 34306 ft 459 kts 322°
2026-05-06 16:28 57.04938 34.78002 34612 ft 459 kts 322°
2026-05-06 16:29 57.07624 34.74812 34902 ft 460 kts 322°
2026-05-06 16:29 57.10305 34.71610 35207 ft 460 kts 322°
2026-05-06 16:29 57.12990 34.68387 35520 ft 460 kts 322°
2026-05-06 16:29 57.15669 34.65156 35815 ft 461 kts 322°
2026-05-06 16:30 57.18349 34.61914 35950 ft 462 kts 322°
2026-05-06 16:30 57.20165 34.59713 35954 ft 461 kts 322°
2026-05-06 16:30 57.26383 34.52157 35949 ft 460 kts 322°
2026-05-06 16:31 57.31736 34.45625 35947 ft 461 kts 321°
2026-05-06 16:31 57.37077 34.39086 35954 ft 461 kts 321°
2026-05-06 16:32 57.42420 34.32523 35955 ft 461 kts 321°
2026-05-06 16:32 57.47756 34.25948 35961 ft 460 kts 321°
2026-05-06 16:33 57.53082 34.19359 35959 ft 459 kts 321°
2026-05-06 16:34 57.61027 34.09486 35966 ft 457 kts 321°
2026-05-06 16:34 57.66315 34.02883 35971 ft 457 kts 321°
2026-05-06 16:35 57.71597 33.96267 35986 ft 457 kts 320°
2026-05-06 16:35 57.76848 33.89667 35969 ft 458 kts 320°
2026-05-06 16:36 57.82132 33.83000 35957 ft 458 kts 320°
2026-05-06 16:36 57.87409 33.76318 35977 ft 458 kts 320°
2026-05-06 16:37 57.92460 33.69143 35965 ft 453 kts 315°
2026-05-06 16:37 57.97289 33.61516 35981 ft 453 kts 314°
2026-05-06 16:38 58.02134 33.53910 35980 ft 454 kts 315°
2026-05-06 16:38 58.06195 33.47638 36016 ft 454 kts 315°
2026-05-06 16:39 58.11118 33.40079 35984 ft 452 kts 315°
2026-05-06 16:39 58.15985 33.32591 35843 ft 450 kts 315°
2026-05-06 16:39 58.18410 33.28849 35603 ft 449 kts 314°
2026-05-06 16:40 58.20803 33.25159 35392 ft 449 kts 314°
2026-05-06 16:40 58.23222 33.21415 35138 ft 448 kts 314°
2026-05-06 16:40 58.25633 33.17671 34896 ft 448 kts 314°
2026-05-06 16:40 58.28040 33.13925 34651 ft 447 kts 314°
2026-05-06 16:41 58.30442 33.10179 34410 ft 446 kts 313°
2026-05-06 16:41 58.32840 33.06435 34172 ft 446 kts 313°
2026-05-06 16:41 58.35235 33.02689 33828 ft 443 kts 313°
2026-05-06 16:41 58.37566 32.99056 33125 ft 426 kts 313°
2026-05-06 16:42 58.39825 32.95534 32349 ft 413 kts 313°
2026-05-06 16:42 58.42008 32.92120 31668 ft 400 kts 313°
2026-05-06 16:42 58.44119 32.88808 31063 ft 386 kts 312°
2026-05-06 16:42 58.46156 32.85601 30663 ft 375 kts 312°
2026-05-06 16:43 58.48163 32.82412 30234 ft 376 kts 312°
2026-05-06 16:43 58.50179 32.79194 29786 ft 378 kts 312°
2026-05-06 16:43 58.52197 32.75975 29259 ft 377 kts 312°
2026-05-06 16:43 58.53925 32.73224 28820 ft 375 kts 312°
2026-05-06 16:44 58.55920 32.70053 28353 ft 372 kts 312°
2026-05-06 16:44 58.57904 32.66899 27884 ft 369 kts 312°
2026-05-06 16:44 58.59870 32.63769 27410 ft 366 kts 312°
2026-05-06 16:44 58.61824 32.60653 26956 ft 364 kts 312°
2026-05-06 16:45 58.63762 32.57557 26485 ft 362 kts 312°
2026-05-06 16:45 58.65688 32.54473 26039 ft 360 kts 312°
2026-05-06 16:45 58.67601 32.51407 25670 ft 356 kts 311°
2026-05-06 16:45 58.69492 32.48377 25293 ft 352 kts 311°
2026-05-06 16:46 58.71367 32.45365 24836 ft 350 kts 311°
2026-05-06 16:46 58.73230 32.42363 24384 ft 349 kts 311°
2026-05-06 16:46 58.75087 32.39367 23956 ft 347 kts 311°
2026-05-06 16:46 58.76930 32.36391 23526 ft 345 kts 311°
2026-05-06 16:47 58.78760 32.33429 23006 ft 343 kts 311°
2026-05-06 16:47 58.80578 32.30478 22507 ft 341 kts 311°
2026-05-06 16:47 58.82386 32.27542 22025 ft 339 kts 311°
2026-05-06 16:47 58.84183 32.24622 21554 ft 336 kts 311°
2026-05-06 16:48 58.85967 32.21720 21096 ft 334 kts 311°
2026-05-06 16:48 58.87737 32.18836 20620 ft 332 kts 311°
2026-05-06 16:48 58.89497 32.15965 20151 ft 330 kts 311°
2026-05-06 16:48 58.91245 32.13110 19712 ft 328 kts 312°
2026-05-06 16:49 58.92981 32.10270 19272 ft 326 kts 312°
2026-05-06 16:49 58.94709 32.07440 18824 ft 325 kts 311°
2026-05-06 16:49 58.96431 32.04615 18366 ft 324 kts 312°
2026-05-06 16:49 58.98146 32.01798 17881 ft 322 kts 312°
2026-05-06 16:50 58.99846 31.99003 17401 ft 319 kts 312°
2026-05-06 16:50 59.01535 31.96223 16961 ft 317 kts 312°
2026-05-06 16:50 59.03199 31.93485 16348 ft 310 kts 312°
2026-05-06 16:50 59.04823 31.90807 15751 ft 304 kts 312°
2026-05-06 16:51 59.06428 31.88150 15291 ft 303 kts 312°
2026-05-06 16:51 59.08023 31.85506 14862 ft 300 kts 313°
2026-05-06 16:51 59.09606 31.82880 14443 ft 298 kts 313°
2026-05-06 16:51 59.11180 31.80263 14028 ft 296 kts 312°
2026-05-06 16:52 59.12667 31.77535 13579 ft 292 kts 309°
2026-05-06 16:52 59.14114 31.74729 13163 ft 293 kts 309°
2026-05-06 16:52 59.15552 31.71947 12728 ft 291 kts 309°
2026-05-06 16:52 59.16989 31.69190 12300 ft 288 kts 310°
2026-05-06 16:53 59.18416 31.66461 11896 ft 287 kts 310°
2026-05-06 16:53 59.19839 31.63743 11463 ft 286 kts 310°
2026-05-06 16:53 59.21259 31.61033 11023 ft 285 kts 311°
2026-05-06 16:53 59.22673 31.58337 10681 ft 283 kts 311°
2026-05-06 16:54 59.24086 31.55640 10554 ft 284 kts 311°
2026-05-06 16:54 59.25497 31.52945 10424 ft 283 kts 311°
2026-05-06 16:54 59.26899 31.50272 10303 ft 276 kts 311°
2026-05-06 16:54 59.28246 31.47708 10173 ft 265 kts 311°
2026-05-06 16:55 59.29538 31.45230 10075 ft 256 kts 311°
2026-05-06 16:55 59.30788 31.42825 9956 ft 253 kts 311°
2026-05-06 16:55 59.32076 31.40329 9903 ft 266 kts 311°
2026-05-06 16:55 59.33396 31.37780 9654 ft 266 kts 311°
2026-05-06 16:56 59.34703 31.35260 9153 ft 267 kts 311°
2026-05-06 16:56 59.36043 31.32672 8784 ft 267 kts 312°
2026-05-06 16:56 59.37366 31.30119 8469 ft 267 kts 312°
2026-05-06 16:56 59.38666 31.27605 8147 ft 266 kts 313°
2026-05-06 16:57 59.40000 31.25022 7833 ft 266 kts 313°
2026-05-06 16:57 59.41312 31.22478 7529 ft 265 kts 313°
2026-05-06 16:57 59.42611 31.19957 7221 ft 265 kts 313°
2026-05-06 16:57 59.43884 31.17488 6899 ft 264 kts 314°
2026-05-06 16:58 59.45172 31.14982 6590 ft 264 kts 314°
2026-05-06 16:58 59.46489 31.12421 6259 ft 263 kts 314°
2026-05-06 16:58 59.47765 31.09934 5925 ft 261 kts 314°
2026-05-06 16:58 59.49054 31.07421 5615 ft 260 kts 314°
2026-05-06 16:59 59.50317 31.04952 5311 ft 258 kts 314°
2026-05-06 16:59 59.51591 31.02461 5000 ft 258 kts 314°
2026-05-06 16:59 59.52831 30.99910 4874 ft 259 kts 310°
2026-05-06 16:59 59.53996 30.97212 4794 ft 257 kts 309°
2026-05-06 17:00 59.55143 30.94512 4697 ft 257 kts 309°
2026-05-06 17:00 59.56294 30.91821 4586 ft 256 kts 309°
2026-05-06 17:00 59.57448 30.89145 4498 ft 256 kts 310°
2026-05-06 17:00 59.58606 30.86470 4395 ft 256 kts 310°
2026-05-06 17:01 59.59765 30.83798 4285 ft 256 kts 310°
2026-05-06 17:01 59.60910 30.81119 4172 ft 255 kts 309°
2026-05-06 17:01 59.62057 30.78443 4089 ft 255 kts 310°
2026-05-06 17:01 59.63193 30.75845 3985 ft 243 kts 310°
2026-05-06 17:02 59.64268 30.73387 3895 ft 230 kts 310°
2026-05-06 17:02 59.65284 30.71052 3790 ft 217 kts 310°
2026-05-06 17:02 59.66274 30.68857 3715 ft 213 kts 315°
2026-05-06 17:02 59.67455 30.67107 3635 ft 212 kts 328°
2026-05-06 17:03 59.68754 30.65736 3510 ft 212 kts 332°
2026-05-06 17:03 59.70068 30.64447 3351 ft 210 kts 333°
2026-05-06 17:03 59.71372 30.63170 3251 ft 205 kts 333°
2026-05-06 17:03 59.72616 30.61953 3163 ft 193 kts 333°
2026-05-06 17:04 59.73785 30.60795 3049 ft 182 kts 333°
2026-05-06 17:04 59.74889 30.59661 2898 ft 176 kts 329°
2026-05-06 17:04 59.75822 30.58082 2778 ft 178 kts 310°
2026-05-06 17:04 59.76342 30.55930 2592 ft 171 kts 287°
2026-05-06 17:05 59.76619 30.53661 2501 ft 170 kts 285°
2026-05-06 17:05 59.76949 30.51409 2341 ft 169 kts 289°
2026-05-06 17:05 59.77282 30.49253 2097 ft 157 kts 288°
2026-05-06 17:05 59.77582 30.47236 1890 ft 149 kts 288°
2026-05-06 17:06 59.77874 30.45273 1688 ft 148 kts 288°
2026-05-06 17:06 59.78164 30.43321 1481 ft 148 kts 288°
2026-05-06 17:06 59.78457 30.41361 1264 ft 148 kts 287°
2026-05-06 17:06 59.78749 30.39398 1044 ft 148 kts 287°
2026-05-06 17:07 59.79042 30.37438 832 ft 148 kts 287°
2026-05-06 17:07 59.79340 30.35474 644 ft 149 kts 287°
2026-05-06 17:07 59.79634 30.33506 419 ft 149 kts 287°
2026-05-06 17:07 59.79928 30.31554 238 ft 148 kts 286°
2026-05-06 17:08 59.80214 30.29591 96 ft 146 kts 287°
2026-05-06 17:08 59.80464 30.27933 87 ft 90 kts 287°
2026-05-06 17:08 59.80583 30.27149 90 ft 47 kts 287°
2026-05-06 17:08 59.80630 30.26841 89 ft 11 kts 287°
2026-05-06 17:09 59.80616 30.26681 88 ft 12 kts 228°
2026-05-06 17:09 59.80541 30.26608 88 ft 14 kts 199°
2026-05-06 17:09 59.80515 30.26592 91 ft 0 kts 197°
2026-05-06 17:10 59.80485 30.26574 88 ft 10 kts 194°
2026-05-06 17:11 59.80440 30.26624 89 ft 8 kts 129°
2026-05-06 17:11 59.80417 30.26726 91 ft 9 kts 109°
2026-05-06 17:11 59.80380 30.26789 91 ft 7 kts 169°
2026-05-06 17:11 59.80327 30.26782 88 ft 9 kts 188°
2026-05-06 17:12 59.80305 30.26791 88 ft 0 kts 158°
2026-05-06 17:12 59.80283 30.26843 91 ft 7 kts 123°
2026-05-06 17:12 59.80269 30.26912 90 ft 0 kts 109°
2026-05-06 17:12 59.80264 30.26939 88 ft 4 kts 109°
2026-05-06 17:13 59.80261 30.26958 89 ft 0 kts 108°